Theta_e
311 310 313 313 314 317 319 321 322 322 323 324 325 325 326 326 326 326 327 328 329 329 329 328 328 328 329 327 328 328 330 330 333 337 341 343 340 343 342 337 333 332 333 334
311 311 312 315 315 316 317 317 319 321 323 323 324 325 326 327 326 327 326 328 330 330 329 329 328 328 327 328 329 331 332 335 336 339 343 343 342 342 340 337 333 332 333 333
309 313 313 314 316 316 316 317 317 318 321 321 321 322 322 323 325 327 328 328 328 329 328 328 327 327 327 330 330 332 334 336 339 345 345 344 343 342 339 336 332 332 333 333
307 310 314 313 315 317 316 317 318 320 320 320 321 323 322 323 324 325 327 327 328 329 328 327 328 328 328 330 332 333 335 342 346 346 344 342 342 338 333 333 333 334 333 334
308 309 310 312 314 316 317 318 318 319 318 318 320 322 322 324 325 323 324 327 328 327 327 327 328 329 331 333 334 334 338 343 345 344 342 340 338 335 334 334 333 333 333 331
309 310 309 309 311 315 315 317 318 317 317 318 320 321 322 322 323 325 324 326 327 327 328 328 330 332 335 335 335 337 339 343 344 343 339 336 333 332 333 333 331 331 331 331
313 312 310 310 310 310 313 313 316 318 318 319 319 321 323 323 324 324 324 325 329 331 332 333 334 336 337 337 337 337 340 342 341 336 335 333 334 334 333 332 331 332 331 330
311 314 314 314 310 309 310 314 315 318 320 319 320 322 322 323 324 326 326 326 335 335 336 337 338 338 338 338 338 339 339 338 336 335 333 333 334 332 331 330 330 331 331 327
315 313 314 312 313 311 310 311 315 316 319 319 320 321 321 321 323 324 324 328 337 338 338 338 338 338 339 339 338 336 337 335 334 334 334 334 329 331 331 333 329 326 327 327
312 312 311 311 311 314 312 313 315 315 318 320 321 321 322 325 324 325 325 333 336 337 338 337 337 338 339 338 337 336 335 333 334 333 334 331 333 333 332 330 328 328 328 329
310 311 311 311 310 312 313 311 312 315 316 319 321 322 323 325 326 325 326 334 336 336 337 336 338 338 337 337 337 336 333 334 334 333 333 330 330 330 330 328 329 327 328 327
311 313 314 312 312 312 314 315 313 316 317 319 321 323 326 328 327 323 328 335 335 336 336 337 338 337 337 337 336 335 334 334 333 333 331 330 329 329 330 329 328 328 327 326
311 311 313 313 311 314 316 318 314 315 318 318 321 321 323 323 329 331 334 335 336 336 336 337 336 336 336 335 335 334 334 333 332 332 329 329 329 330 330 328 328 325 326 326
310 310 312 315 316 315 317 317 317 318 318 319 323 322 321 325 330 333 334 335 335 335 336 336 336 336 335 335 335 334 333 331 332 329 329 328 328 330 329 328 327 327 326 327
310 313 312 314 315 315 314 314 315 316 319 319 320 323 324 330 331 334 334 334 334 335 336 335 335 335 336 335 335 333 331 330 331 331 329 329 330 329 328 327 328 328 328 327
311 314 313 314 315 315 313 314 314 315 316 320 319 322 327 329 334 334 334 334 334 335 335 335 335 335 335 335 333 330 330 330 330 331 329 329 329 328 327 327 327 327 327 326
309 313 314 317 316 316 315 313 314 315 317 319 319 321 330 331 331 332 333 333 334 335 335 335 335 335 335 334 331 328 329 330 329 330 330 329 329 329 327 328 327 327 327 327
308 310 313 319 317 316 314 321 317 317 319 325 323 329 330 329 330 330 331 333 334 334 334 334 334 335 334 332 329 327 329 329 330 330 330 330 331 329 328 328 327 327 326 327
308 312 314 318 319 317 318 321 321 323 329 329 328 328 329 330 329 329 330 330 331 334 333 334 334 334 333 330 328 328 328 327 329 330 331 330 330 329 329 328 328 329 328 328
312 311 315 317 318 322 320 316 315 319 331 327 327 327 329 328 331 328 329 329 329 333 334 333 333 333 332 328 327 328 328 327 329 331 331 330 330 330 330 329 330 329 329 329
314 315 316 316 318 317 316 314 314 330 329 327 326 327 328 327 327 328 329 329 329 331 334 334 333 333 332 328 326 327 327 327 329 332 331 331 330 329 329 330 329 330 331 329
315 315 318 317 318 319 311 315 324 321 321 325 324 326 328 329 329 329 330 330 330 331 335 334 334 333 331 328 326 327 326 327 329 331 330 331 330 331 332 328 329 332 330 329
314 313 312 315 315 313 312 315 316 318 320 321 323 324 326 327 328 329 332 332 331 331 332 335 334 333 331 329 326 326 326 326 328 331 330 331 331 331 328 325 331 332 329 329
311 311 309 314 312 312 314 313 314 316 318 318 320 322 324 325 327 328 329 329 332 332 332 336 335 333 331 329 326 326 326 326 328 331 331 332 331 332 332 321 328 328 330 328
311 311 312 312 313 313 313 313 314 315 317 317 318 321 322 323 325 325 325 327 330 333 333 333 335 334 332 329 327 326 328 326 327 331 332 331 330 332 332 324 328 328 330 330
310 312 312 313 312 313 313 313 313 314 316 316 317 319 320 321 323 323 324 325 326 330 335 335 336 335 334 331 328 325 329 325 327 330 332 332 331 333 332 329 328 328 327 327
Wind_Speed
15 8 21 36 24 15 15 18 21 20 18 15 23 25 25 24 20 20 27 33 33 36 44 32 26 16 18 24 24 20 25 28 28 31 34 33 38 28 26 22 13 16 15 13
10 22 27 17 16 18 19 23 24 15 12 13 20 18 22 23 14 26 35 30 27 31 28 24 27 32 34 25 18 19 24 26 28 31 33 29 29 26 21 21 19 19 17 19
16 17 17 21 19 19 25 26 20 19 10 17 15 15 19 17 19 20 24 28 32 29 30 32 33 28 28 21 21 19 24 25 28 29 25 21 23 20 17 23 21 19 19 19
16 19 22 19 22 21 24 15 21 18 11 16 10 16 21 13 17 19 25 30 40 40 41 44 37 33 26 22 20 19 20 25 26 23 21 22 22 21 17 17 19 19 17 15
23 14 9 19 22 20 24 15 18 13 16 17 19 9 18 9 8 9 10 24 29 32 37 38 31 20 23 22 19 15 22 23 21 19 20 22 22 15 18 18 14 14 14 13
17 20 17 17 17 19 17 16 18 16 12 11 19 15 25 14 11 9 9 22 31 34 20 24 19 19 24 20 15 17 20 23 22 21 23 20 22 18 15 15 12 10 9 11
12 14 18 20 18 17 16 12 6 10 10 17 14 12 18 7 13 22 15 22 16 5 13 24 28 28 25 21 18 18 23 25 24 22 20 20 18 17 19 14 10 10 10 8
9 9 9 10 17 11 13 15 9 13 12 17 13 8 11 19 12 20 23 22 17 24 28 31 32 29 24 21 19 23 27 26 26 21 19 19 15 15 11 10 9 10 9 5
5 8 12 17 16 13 19 16 20 17 10 8 5 13 21 26 20 11 14 18 28 31 30 29 26 23 23 21 23 28 25 26 25 21 19 13 12 11 10 10 6 5 2 7
1 7 8 16 14 14 18 11 7 11 13 13 7 13 12 12 19 16 8 17 28 33 31 28 26 26 23 23 24 24 22 27 22 19 16 11 11 8 7 7 4 3 10 8
7 4 9 10 3 8 7 16 11 9 7 11 6 10 11 19 15 11 12 26 33 36 34 31 30 26 23 26 24 21 23 23 20 19 14 12 10 5 4 1 3 9 10 7
3 3 6 13 18 17 18 21 16 9 19 9 4 9 8 6 7 10 14 28 34 38 34 33 32 28 28 27 23 22 21 22 17 19 13 12 8 7 7 4 6 12 11 12
4 3 5 8 6 8 7 12 15 7 5 20 10 13 4 11 7 12 20 30 32 37 35 34 33 31 29 26 25 23 20 19 18 17 13 10 8 8 6 8 7 8 14 11
5 3 6 8 10 8 11 20 16 11 9 8 13 19 10 13 8 17 25 32 35 35 37 36 32 31 28 25 23 22 20 16 19 15 11 8 7 6 7 10 11 10 11 9
3 4 10 15 18 12 16 19 19 16 15 11 16 8 12 6 9 15 28 32 33 32 34 34 33 31 28 26 24 19 21 16 19 16 9 5 6 6 10 10 14 11 9 8
4 3 10 13 14 11 17 20 19 20 22 17 20 19 6 1 18 14 25 30 27 31 33 35 33 32 29 27 25 19 21 16 15 16 8 5 4 7 9 13 11 12 9 8
8 5 3 5 9 8 8 16 18 14 18 21 18 17 8 8 11 10 18 26 29 31 33 35 34 32 30 27 24 19 22 20 15 13 8 8 10 10 12 12 12 11 9 8
12 3 0 4 2 4 5 10 16 16 15 19 10 18 9 12 24 28 23 24 24 37 34 33 34 32 29 26 23 20 23 18 15 13 11 12 12 10 14 12 11 11 12 12
13 4 3 3 3 12 13 10 10 7 8 19 20 22 7 4 30 18 20 14 14 17 34 35 33 31 30 25 24 22 22 16 18 15 16 16 13 14 14 11 8 8 10 11
4 9 4 3 5 6 6 21 31 19 5 11 10 10 8 7 7 2 12 10 8 11 14 35 34 32 29 26 24 23 20 18 18 20 18 17 12 14 12 10 9 6 9 9
1 1 5 3 2 3 12 25 41 5 1 7 12 11 14 6 3 6 10 11 5 6 14 33 35 33 29 27 24 24 21 21 18 20 15 17 15 13 13 11 8 12 10 9
4 4 1 2 1 2 19 20 7 7 13 7 17 16 14 13 12 11 11 13 8 4 10 34 35 32 29 27 24 24 22 21 18 22 21 21 18 17 12 9 12 10 9 10
2 5 2 5 4 5 18 24 18 14 10 16 19 20 18 20 19 17 17 15 10 3 6 33 32 31 29 27 24 26 23 22 19 23 20 22 17 13 10 14 12 10 9 11
6 10 3 1 5 6 16 23 23 23 27 25 23 21 24 23 23 27 24 23 19 10 2 17 32 31 30 27 24 27 24 24 22 23 23 23 17 15 10 11 13 12 11 12
2 5 7 2 5 5 15 27 29 25 25 21 24 22 25 26 26 27 28 25 24 16 3 5 32 32 29 27 23 28 24 26 23 27 24 23 19 17 13 12 14 10 7 8
5 2 2 2 12 6 6 19 24 24 19 17 19 20 24 26 26 24 26 24 26 25 15 6 30 31 28 25 24 29 24 28 25 28 27 25 22 20 17 13 15 14 11 8
Wind_Direction
233 220 223 221 220 238 260 233 246 247 243 256 254 259 266 267 252 263 266 269 258 246 257 256 258 279 274 256 256 265 244 235 232 225 217 203 210 205 206 203 209 215 231 238
235 231 232 241 238 240 248 262 259 265 253 244 247 256 252 253 257 255 252 260 268 270 269 247 262 277 275 257 258 247 235 226 225 221 215 210 209 210 222 217 211 227 233 242
240 250 231 237 231 235 230 238 252 259 293 282 295 288 282 282 278 276 271 276 280 257 262 269 270 278 267 253 252 241 227 225 218 211 197 193 194 204 212 214 216 231 238 248
257 252 244 249 226 227 243 236 246 261 252 255 247 273 262 267 268 258 260 261 266 265 269 267 263 263 250 235 231 220 219 202 198 195 189 189 188 193 194 201 215 221 235 244
243 273 261 251 247 229 251 229 257 254 243 261 258 260 263 204 248 282 267 270 267 266 262 255 247 232 211 216 209 204 191 188 187 182 185 178 183 178 184 204 221 211 228 260
255 247 253 264 272 246 266 241 246 257 260 269 244 228 261 242 254 250 259 266 270 279 264 249 208 195 184 189 187 181 172 174 174 171 173 176 179 189 188 186 197 212 247 272
262 257 243 255 269 270 250 237 248 234 231 239 221 240 249 246 227 242 244 258 272 200 150 156 160 164 170 170 172 167 165 165 167 166 175 176 176 177 185 184 204 239 257 271
239 274 272 274 235 258 253 225 215 217 214 250 256 248 252 244 240 242 249 258 134 133 141 147 156 158 161 163 163 161 162 159 167 164 166 176 192 200 197 203 218 245 255 281
10 264 301 316 308 246 252 250 224 247 276 247 240 243 263 260 256 240 240 174 130 133 140 146 148 152 158 155 154 158 157 160 167 167 167 175 175 168 183 206 220 243 256 170
295 290 277 294 318 297 232 253 236 224 233 256 233 258 256 288 236 237 177 137 133 138 140 142 148 152 153 150 149 156 157 159 164 161 168 160 157 179 199 220 205 191 152 152
344 253 273 304 246 272 283 240 247 236 202 235 246 265 256 238 222 216 160 144 141 142 144 145 150 151 151 150 152 153 153 157 161 162 164 154 170 192 193 233 168 165 152 148
93 286 293 271 273 276 280 286 226 233 222 246 216 260 294 98 113 147 149 145 143 146 146 149 151 150 153 155 155 155 155 162 164 163 168 175 184 203 208 193 182 179 176 160
21 323 310 297 251 244 252 280 232 227 224 226 240 243 278 282 108 111 132 134 135 141 145 149 149 152 157 156 158 160 163 169 164 168 165 171 195 225 217 165 175 177 151 145
117 252 235 272 300 322 298 316 326 322 227 222 239 251 285 272 128 132 135 139 140 143 145 149 151 155 158 160 161 165 168 168 173 173 173 182 215 216 199 162 170 143 149 148
149 265 256 277 283 287 271 283 297 310 292 224 238 254 228 193 123 135 133 135 139 142 144 153 156 159 161 163 166 167 172 169 180 181 169 198 191 167 150 152 168 167 169 156
177 264 295 292 279 221 271 280 283 278 279 281 241 244 298 25 113 131 140 143 142 143 151 158 161 163 165 167 169 163 173 169 184 177 177 183 158 151 159 160 163 164 168 164
252 205 320 263 109 146 268 256 263 261 273 269 237 223 137 68 38 68 127 136 145 149 157 161 165 166 166 168 170 169 176 170 175 172 173 154 162 158 158 160 165 169 166 168
250 252 325 285 315 147 247 327 219 230 266 293 243 120 112 128 99 66 75 127 151 157 164 166 169 168 169 168 171 170 174 168 178 172 161 168 162 149 157 163 169 179 183 179
221 166 251 255 310 319 309 6 355 333 8 4 89 93 296 72 90 46 63 74 75 137 168 170 171 169 166 167 170 170 170 172 181 175 163 163 164 151 164 171 180 185 192 194
290 162 191 326 191 243 12 331 332 319 68 323 51 65 45 5 61 348 55 57 96 96 152 169 169 168 165 167 170 173 171 178 180 178 167 165 155 160 162 164 177 168 160 172
321 145 221 229 292 354 333 327 311 109 74 294 39 50 75 69 114 64 65 66 87 52 148 172 170 169 168 169 173 175 177 183 183 180 175 168 155 167 176 183 178 155 142 142
346 310 181 154 12 274 350 321 49 325 316 300 51 42 65 61 71 65 56 52 55 52 111 172 170 169 170 172 175 177 181 180 185 177 174 171 170 182 190 165 152 152 147 154
23 352 309 350 55 22 339 347 341 333 298 17 49 42 49 51 40 39 40 33 31 17 67 174 172 170 174 177 181 180 184 181 184 177 184 179 179 183 174 167 165 161 159 166
342 8 22 253 356 5 348 340 332 358 24 24 27 39 44 42 36 42 34 22 31 0 336 182 176 175 176 180 182 181 185 182 185 182 186 178 182 184 166 161 167 166 160 164
234 344 352 309 8 7 5 342 351 355 20 19 24 35 41 36 35 39 33 22 10 13 54 228 183 180 180 183 182 182 190 185 191 189 188 183 186 189 173 157 163 170 172 176
349 51 16 345 305 259 331 355 350 352 5 5 8 36 31 31 31 34 29 21 13 12 19 49 193 185 182 186 185 183 192 189 197 192 188 186 187 192 189 177 184 198 204 188